This is the latest recevied weather packets stored in our database for station/object K4DNM. If no packets are shown the sender has not sent any weather packets the latest 10 day(s).
| Time | Temp. | Humidity | Pressure | Rain* | Wind** | Luminosity | Snow |
|---|---|---|---|---|---|---|---|
| 1777668967 | 12.78° C | 79% | 1012.6 hPa | 0 mm | - | 75 W/m² | - |
| 1777668666 | 12.78° C | 76% | 1012.7 hPa | 0 mm | - | 59 W/m² | - |
| 1777668366 | 13.33° C | 74% | 1012.6 hPa | 0 mm | - | 47 W/m² | - |
| 1777668067 | 13.33° C | 73% | 1012.6 hPa | 0 mm | - | 78 W/m² | - |
| 1777667765 | 13.33° C | 75% | 1012.7 hPa | 0 mm | - | 127 W/m² | - |
| 1777667466 | 13.33° C | 75% | 1012.7 hPa | 0 mm | - | 145 W/m² | - |
| 1777667166 | 12.78° C | 75% | 1012.7 hPa | 0 mm | - | 136 W/m² | - |
| 1777666865 | 12.78° C | 76% | 1012.8 hPa | 0 mm | - | 141 W/m² | - |
| 1777666566 | 12.78° C | 74% | 1012.9 hPa | 0 mm | - | 156 W/m² | - |
| 1777666267 | 12.78° C | 76% | 1012.9 hPa | 0 mm | - | 167 W/m² | - |
| 1777665963 | 12.78° C | 77% | 1012.9 hPa | 0 mm | - | 157 W/m² | - |
| 1777665663 | 12.22° C | 76% | 1013 hPa | 0 mm | - | 163 W/m² | - |
| 1777665363 | 12.22° C | 75% | 1013.3 hPa | 0 mm | - | 56 W/m² | - |
| 1777665064 | 12.22° C | 78% | 1013.4 hPa | 0 mm | - | 54 W/m² | - |
| 1777664764 | 12.22° C | 77% | 1013.3 hPa | 0 mm | - | 66 W/m² | - |
| 1777664464 | 12.22° C | 81% | 1013.4 hPa | 0 mm | - | 77 W/m² | - |
| 1777664164 | 12.22° C | 81% | 1013.4 hPa | 0.25 mm | - | 99 W/m² | - |
| 1777663864 | 12.22° C | 81% | 1013.5 hPa | 0.51 mm | - | 73 W/m² | - |
| 1777663563 | 12.22° C | 79% | 1013.7 hPa | 0.51 mm | - | 84 W/m² | - |
| 1777663264 | 12.22° C | 82% | 1013.7 hPa | 0.51 mm | - | 138 W/m² | - |
| 1777662964 | 11.67° C | 82% | 1013.7 hPa | 0.51 mm | - | 134 W/m² | - |
| 1777662664 | 11.67° C | 81% | 1013.9 hPa | 0.51 mm | - | 136 W/m² | - |
| 1777662424 | 11.67° C | 82% | 1014 hPa | 0.51 mm | - | 145 W/m² | - |
| 1777662123 | 11.67° C | 85% | 1014.1 hPa | 0.51 mm | - | 177 W/m² | - |
| 1777661821 | 11.67° C | 87% | 1014.1 hPa | 0.51 mm | - | 167 W/m² | - |
* Rain latest hour (hover to see other rain measurements)
** Current wind speed in m/s (hover to see current wind gust speed)